CW1129 Weather Reports


time (UTC)temp
C
wind
direction
speed
KPH
gust
KPH
rain 1hr
cm
rain 24hr
cm
rain mn
cm
humidity
%
barometer
mb
20260505013746 16 203 4.8 9.7 0.00 0.00 0.00 38 1005.0
20260505012806 16 225 1.6 6.4 0.00 0.00 0.00 37 1004.6
20260505010746 16 248 3.2 9.7 0.00 0.00 0.00 36 1004.5
20260505005746 16 225 3.2 9.7 0.00 0.00 0.00 35 1004.2
20260505004746 17 180 3.2 9.7 0.00 0.00 0.00 35 1004.2
20260505003746 17 225 4.8 11.3 0.00 0.00 0.00 34 1003.8
20260505002746 17 225 3.2 9.7 0.00 0.00 0.00 34 1003.3
20260505001746 17 203 1.6 4.8 0.00 0.00 0.00 33 1003.3
20260505000746 17 225 3.2 8.0 0.00 0.00 0.00 31 1003.1
20260504235746 18 225 3.2 9.7 0.00 0.00 0.00 30 1002.7
20260504234746 18 225 3.2 9.7 0.00 0.00 0.00 28 1002.8
20260504233746 19 225 4.8 12.9 0.00 0.00 0.00 28 1002.5
20260504232746 20 203 1.6 6.4 0.00 0.00 0.00 23 1002.1
20260504231806 20 203 3.2 9.7 0.00 0.00 0.00 22 1002.1
20260504230746 20 0.0 4.8 0.00 0.00 0.00 22 1002.0
20260504225806 21 225 3.2 8.0 0.00 0.00 0.00 22 1001.9
20260504223746 21 270 1.6 4.8 0.00 0.00 0.00 21 1001.7
20260504222806 21 225 3.2 9.7 0.00 0.00 0.00 20 1001.8
20260504221746 21 248 3.2 6.4 0.00 0.00 0.00 21 1001.8
20260504220746 21 203 1.6 4.8 0.00 0.00 0.00 21 1001.8
20260504215746 21 248 1.6 6.4 0.00 0.00 0.00 21 1001.8
20260504214746 21 270 3.2 6.4 0.00 0.00 0.00 21 1001.8
20260504213746 21 248 3.2 4.8 0.00 0.00 0.00 21 1001.8
20260504212746 21 203 4.8 14.5 0.00 0.00 0.00 20 1001.9
20260504211745 21 225 3.2 9.7 0.00 0.00 0.00 20 1001.9
20260504210745 22 270 3.2 9.7 0.00 0.00 0.00 19 1001.8
20260504205746 21 203 3.2 9.7 0.00 0.00 0.00 20 1001.8
20260504204745 21 248 6.4 11.3 0.00 0.00 0.00 20 1001.8
20260504203745 21 248 4.8 9.7 0.00 0.00 0.00 19 1001.8
20260504202746 21 225 6.4 12.9 0.00 0.00 0.00 20 1001.8
20260504201745 21 225 4.8 9.7 0.00 0.00 0.00 20 1001.8
20260504200805 21 270 4.8 11.3 0.00 0.00 0.00 20 1001.9
20260504195746 21 225 3.2 11.3 0.00 0.00 0.00 19 1002.0
20260504194745 21 225 3.2 11.3 0.00 0.00 0.00 18 1002.0
20260504193805 21 203 4.8 11.3 0.00 0.00 0.00 17 1002.0
20260504192745 22 203 6.4 11.3 0.00 0.00 0.00 18 1002.0
20260504191745 21 248 6.4 9.7 0.00 0.00 0.00 17 1002.0
20260504190805 21 225 3.2 11.3 0.00 0.00 0.00 17 1002.2
20260504185745 21 248 6.4 12.9 0.00 0.00 0.00 17 1002.3
20260504184745 21 225 6.4 17.7 0.00 0.00 0.00 18 1002.3
20260504183745 21 225 4.8 11.3 0.00 0.00 0.00 17 1002.5
20260504182745 21 203 4.8 11.3 0.00 0.00 0.00 18 1002.7
20260504181745 21 248 4.8 12.9 0.00 0.00 0.00 18 1002.7
20260504180745 21 270 9.7 20.9 0.00 0.00 0.00 18 1002.5
20260504175745 21 248 6.4 11.3 0.00 0.00 0.00 18 1002.6
20260504174805 21 248 6.4 12.9 0.00 0.00 0.00 18 1002.6
20260504173745 21 225 6.4 12.9 0.00 0.00 0.00 18 1002.6
20260504172745 20 225 6.4 12.9 0.00 0.00 0.00 19 1003.0
20260504171745 20 225 8.0 17.7 0.00 0.00 0.00 18 1003.0
20260504170805 20 225 8.0 12.9 0.00 0.00 0.00 20 1002.9
20260504150746 18 225 4.8 9.7 0.00 0.00 0.00 23 1004.1
20260504140806 16 203 3.2 11.3 0.00 0.00 0.00 28 1004.6
20260504130746 13 270 3.2 4.8 0.00 0.03 0.00 34 1005.6
20260504081745 7 0.0 0.0 0.00 0.03 0.00 48 1005.6
20260504080745 7 0.0 0.0 0.00 0.03 0.00 48 1005.6
20260504050746 6 315 1.6 4.8 0.00 0.03 0.00 45 1005.6
20260504045747 6 315 1.6 3.2 0.00 0.03 0.00 46 1005.6
20260504044746 6 315 1.6 3.2 0.00 0.03 0.00 45 1005.6
20260504043747 6 315 1.6 3.2 0.00 0.03 0.00 43 1005.5
20260504042746 6 315 1.6 4.8 0.00 0.03 0.00 44 1005.5
20260504041746 6 0.0 0.0 0.00 0.03 0.00 44 1005.5
20260504040746 6 0.0 0.0 0.00 0.03 0.00 43 1005.4
20260504035746 6 0.0 0.0 0.00 0.03 0.03 44 1005.3
20260504034746 6 0.0 0.0 0.00 0.03 0.03 44 1005.3
20260504033806 6 0.0 0.0 0.00 0.03 0.03 42 1005.2
20260504032746 6 0.0 0.0 0.00 0.03 0.03 41 1005.1
20260504031746 7 0.0 0.0 0.00 0.03 0.03 41 1005.1
20260504030746 7 0.0 0.0 0.00 0.03 0.03 38 1005.1
20260504025806 7 0.0 0.0 0.00 0.03 0.03 40 1005.1
20260504024746 7 0.0 0.0 0.00 0.03 0.03 38 1005.1
20260504023746 7 0.0 0.0 0.00 0.03 0.03 38 1005.1
20260504022746 7 0.0 0.0 0.00 0.03 0.03 37 1005.0
20260504021746 7 0.0 0.0 0.00 0.03 0.03 37 1005.0
20260504020745 7 0.0 0.0 0.00 0.03 0.03 37 1005.0
20260504015745 7 0.0 0.0 0.00 0.03 0.03 37 1004.9
20260504014745 7 0.0 0.0 0.00 0.03 0.03 38 1004.9